Starlink 30892

operational
NORAD ID: 58366 Int'l Des: 2023-177 Owner: SPXS Country: US Constellation: starlink
LEOCIRCULAR

About Starlink 30892

Description loading...

Live Position

Loading 3D Globe...

Upcoming Passes

Altitude History

Altitude vs Time

uPlot chart will show altitude changes over time

Two-Line Element Set

1 58366U 23177R 25350.58756425 .00000878 00000-0 80062-4 0 9998
2 58366 43.0041 83.2635 0001203 268.6790 91.3915 15.02531922115727
Epoch: Dec 16, 2025 • Age: 17 hours

Current Status

Altitude 568.9 km
Velocity 7.58 km/s
Sub-Earth Point -36.27°S, 117.95°E
Launch Date Nov 18, 2023
Age 2 years
Type internet

Technical Details

Classification Payload
Mass 730.00 kg
Dry Mass 700.00 kg
Total Mass 730.00 kg
Length 0.30 m
Diameter 4.10 m
Span 29.00 m
Shape Box + pan
Manufacturer SPXS
Bus Type Starlink V2M
Phase Status In Orbit
Owner/State SPXS/US

Large Constellations

Loading constellations...